sat.trackr.live / text

‹ back to catalog

FORMOSAT 7-1

NORAD 44349 · 2019-036L

PAYLOAD ACTIVE UNKNOWN

§ Identity

Operator
Country
ROC
Launch date
2019-06-25
Launch site
AFETR
Launch vehicle
Mass (kg)
RCS (m²)

External: N2YO · Heavens-Above · Gunter

§ Orbital elements

Epoch: 2026-09-10T02:50:47.774400Z

Period
96.21 min
Inclination
23.9969°
Eccentricity
0.0000924
Mean motion
14.96797410 rev/d
Perigee alt
576.2 km
Apogee alt
577.4 km
Semi-major
6,954.9 km
B*
1.4698e-4
RAAN
179.6717°
Arg perigee
95.4184°
Mean anomaly
264.6422°
Rev number
39,739

§ Raw data

FORMOSAT 7-11 44349U 19036L   26253.11860850  .00002027  00000+0  14698-3 0  99912 44349  23.9969 179.6717 0000924  95.4184 264.6422 14.96797410397393

JSON: /api/v1/satellites/44349 · /tle

For live sub-satellite position, see the globe view (requires WebGL).

§ Visibility from observer

Set your observer location to see the next 7 days of passes ≥ 10°. The values pass through the URL so the page stays shareable.

No JS? Fill the form by hand. The geolocation button needs JavaScript.

§ Radio — SatNOGS DB

ModeDescriptionDownlinkUplink
CW Downlink 400.900 MHz

1 transmitter · refreshed weekly from db.satnogs.org